CAPE
1473 1264 1116 863 583 456 79 276 366 409 347 177 64 70 199 308 317 537 373 442 610 635 453 179 33 126 35 1 0 3 24 37 38 0 3 12 0 0 0 0 0 0 39
1781 1193 922 887 692 129 102 26 34 164 341 263 6 86 277 210 591 775 884 774 560 562 310 95 100 43 0 0 0 0 0 0 52 52 0 0 0 0 0 0 0 0 0
789 541 381 473 125 208 64 70 57 117 167 132 136 490 431 412 423 348 216 103 116 101 71 43 0 1 0 0 0 0 0 21 93 59 13 12 17 0 0 0 0 27 32
476 427 291 161 64 117 161 230 218 179 226 383 419 405 385 335 189 33 6 7 2 0 0 7 28 18 0 0 0 4 35 64 115 161 91 38 14 5 5 32 48 0 0
497 616 434 300 277 111 49 131 152 247 309 356 302 222 42 0 0 0 1 0 0 0 0 0 0 0 136 72 57 37 103 210 219 179 145 36 19 12 5 4 4 0 0
368 144 140 75 198 298 256 272 279 229 169 48 0 0 0 0 0 0 0 0 0 0 0 0 0 0 0 15 56 157 187 165 214 204 256 125 32 14 3 0 10 16 0
140 96 55 25 0 0 0 0 0 0 0 0 0 0 0 0 0 0 0 0 0 0 0 0 5 6 7 6 22 55 97 156 203 192 141 69 39 33 2 0 0 0 0
0 0 0 0 0 0 0 0 0 0 0 0 0 0 0 0 0 3 13 13 0 0 0 0 0 7 14 24 58 60 65 48 42 26 57 44 18 20 19 10 6 9 5
0 0 0 0 0 0 0 0 0 0 0 0 0 0 0 11 18 16 1 0 0 0 3 2 1 1 27 14 6 19 31 23 16 10 19 21 9 0 0 0 1 10 5
0 0 0 0 0 0 0 0 0 0 0 1 21 26 33 23 12 0 0 0 4 1 0 0 0 8 5 26 9 23 13 28 41 45 26 1 10 8 2 7 2 0 5
0 0 0 0 0 0 0 0 3 13 16 10 11 7 0 0 0 0 0 0 7 5 3 8 33 28 27 38 55 50 36 18 15 19 8 6 0 4 15 17 14 0 0
0 0 0 0 0 0 0 8 19 10 6 0 0 0 0 0 0 0 0 0 4 11 11 22 25 33 41 56 41 8 2 17 10 15 11 2 16 7 38 11 8 11 2
0 0 0 0 0 0 5 3 17 23 6 0 0 0 0 0 0 0 0 0 0 6 12 16 24 23 39 18 10 28 38 33 6 7 4 11 19 7 0 7 17 29 10
0 0 0 0 0 0 0 0 12 4 2 4 0 0 0 0 0 0 0 1 6 24 15 6 4 8 46 30 45 54 39 24 24 37 27 25 2 1 4 19 35 32 28
0 0 1 6 0 0 0 0 1 3 0 0 0 0 0 0 0 0 0 8 15 14 23 6 0 0 0 16 54 31 17 28 24 24 34 50 5 0 3 10 22 17 18
0 0 0 0 0 0 0 0 0 0 0 0 0 0 0 0 4 8 0 1 0 11 6 1 0 1 40 47 24 0 19 21 27 28 51 34 0 0 0 3 15 31 42
0 0 0 0 0 0 0 0 0 0 0 0 0 0 0 0 5 17 6 9 10 7 7 5 0 0 28 41 22 2 30 35 27 30 39 50 38 3 0 0 5 42 46
0 0 0 0 0 0 0 0 0 0 0 0 0 0 0 0 10 20 20 12 15 2 38 1 0 12 33 53 30 18 10 25 37 33 37 46 48 12 0 0 12 54 63
0 0 0 0 0 0 0 0 0 0 0 0 0 0 0 0 0 11 14 12 0 0 0 0 0 28 52 65 34 24 16 12 14 23 35 43 46 44 15 0 0 38 52
0 0 0 0 0 0 0 0 0 0 0 0 0 0 0 0 2 9 15 4 1 8 0 0 1 7 29 27 5 2 7 12 9 8 7 9 36 39 36 27 66 0 25
0 0 0 0 0 0 0 0 0 0 0 0 0 0 0 0 0 0 0 7 0 1 0 0 1 1 0 1 0 0 0 0 0 0 0 0 0 21 29 44 48 97 2
0 0 0 0 0 0 0 0 0 0 0 0 0 0 0 0 0 0 1 6 0 0 1 0 0 0 0 0 0 0 0 0 0 0 0 0 0 0 12 37 32 51 79
0 0 0 0 0 0 0 0 0 0 0 0 0 0 0 0 0 0 0 0 0 0 0 0 0 0 0 0 0 0 0 0 0 0 0 0 0 0 0 1 23 34 55
0 0 0 0 0 0 0 0 0 0 0 0 0 0 0 0 0 0 0 0 0 0 0 0 0 0 0 0 0 0 0 0 0 0 0 0 0 0 0 6 4 22 40
0 0 0 0 0 0 0 0 0 0 0 0 0 0 0 0 0 0 0 0 0 0 0 0 0 0 0 0 0 0 0 0 0 0 0 0 0 0 0 0 0 0 14
0 0 0 0 0 0 0 0 0 0 0 0 0 0 0 0 0 0 0 0 0 0 0 0 0 0 0 0 0 0 0 0 0 0 0 0 0 0 0 0 0 0 0
CIN
-159 -124 -100 -110 -179 -105 -242 -249 -148 -99 -160 -242 -260 -66 -148 -119 -46 -29 -13 -1 -1 -8 -5 -45 -99 -43 -97 -58 0 -39 -69 -74 -2 -1 -79 -243 -33 0 0 0 0 0 -129
-115 -128 -145 -114 -59 -52 -105 -143 -182 -183 -73 -23 -35 -40 -62 -61 -35 -11 -4 -9 -7 -2 -7 -41 -45 -94 0 0 0 0 0 0 -3 0 0 0 0 0 0 0 0 0 0
-145 -131 -174 -149 -126 -108 -127 -93 -43 -200 -126 -48 -158 -37 -53 -40 -26 -16 -11 -47 -77 -58 -35 -22 0 -5 0 0 0 0 0 -22 -5 -4 0 -58 -80 -2 0 0 0 -75 -76
-8 -5 -7 -202 -28 -33 -33 -52 -145 -176 -119 -91 -72 -57 -41 -15 -18 -14 -163 -175 -38 0 0 -68 -103 -106 0 0 0 -53 -73 -37 -5 0 -13 -31 -55 -128 -21 -11 -9 0 0
-5 -7 -5 -73 -40 -174 -204 -202 -164 -128 -95 -66 -60 -24 -9 0 0 0 -49 0 0 0 0 0 0 0 -15 -39 -62 -106 -45 -11 -5 0 -7 -92 -110 -99 -114 -89 -4 0 0
-7 -66 -123 -197 -157 -133 -116 -105 -77 -66 -42 -22 0 0 0 0 0 0 0 0 0 0 0 0 0 0 0 -121 -68 -33 -11 -14 -1 0 0 -24 -51 -85 -134 0 -15 -4 0
-259 -251 -176 -175 0 0 0 0 0 0 0 0 0 0 0 0 0 0 0 0 0 0 0 0 0 0 -8 -14 -155 -73 -22 -8 -2 -2 -4 -30 -5 -28 -38 0 0 0 0
0 0 0 0 0 0 0 0 0 0 0 0 0 0 0 0 0 -17 -32 -20 0 0 0 0 0 -1 -1 -2 -45 -22 0 0 -3 -10 -52 -67 -69 -64 -41 -35 -9 -4 -5
0 0 0 0 0 0 0 0 0 0 0 0 0 0 0 -16 -16 -16 -2 0 0 0 0 0 0 0 -2 -1 -2 -1 -7 -4 0 -37 -34 -15 -12 -1 -11 0 -1 -5 0
0 0 0 0 0 0 0 0 0 0 0 -1 -11 -11 -4 0 0 0 0 0 0 0 0 0 -1 0 0 -1 -3 -20 -20 -14 -27 -23 -23 -12 -5 0 -74 -73 -2 0 0
0 0 0 0 0 0 0 0 -4 -5 -2 -7 -15 -8 -1 0 0 0 0 0 0 0 -9 -11 -18 -19 -34 -28 -26 -18 -28 -22 -8 -1 -25 -65 0 -80 -7 -2 0 0 0
0 0 0 0 0 0 0 -8 -5 -8 -9 -2 0 0 0 0 0 0 0 0 0 0 -1 -17 -42 -181 -28 -40 -24 -15 -6 -23 -10 -40 -34 -9 -50 -15 -5 -1 -5 -1 -1
0 0 0 0 0 -1 -13 -21 -18 -2 -3 0 0 0 0 0 0 0 0 0 -1 -1 0 0 -76 -19 -12 -6 -1 -39 -22 -19 -24 -21 -28 -30 -15 -4 0 0 -4 0 0
0 0 0 0 0 0 0 0 -30 0 -1 0 0 0 0 0 0 0 0 0 -2 0 0 0 -1 0 -3 -9 -6 -9 -9 -8 -9 -4 -23 -10 -2 0 -1 0 0 -12 -5
0 0 -12 -27 -1 0 0 0 -1 0 0 0 0 0 0 0 0 0 0 0 -2 0 -1 -1 0 0 0 -6 -6 -9 -23 -17 -9 -10 -6 -15 -2 0 0 -2 0 0 0
0 0 0 0 0 -2 0 0 0 0 0 0 0 0 0 0 -4 -3 -1 0 0 0 0 0 0 0 0 -3 -12 -2 -13 -10 -7 -17 -10 -13 0 0 0 0 0 0 0
0 0 0 0 0 0 0 0 0 0 0 0 0 0 0 -2 -1 -3 0 -2 -1 0 -1 0 0 0 0 -3 -2 -3 -3 -3 -7 -4 -4 -5 -7 -1 0 0 -4 -1 0
0 0 0 0 0 0 0 0 0 0 0 0 0 0 0 -1 0 -1 -5 -1 0 -1 0 0 0 -2 -1 -2 -2 -1 -3 -6 -8 -6 -12 -6 -8 -2 0 0 0 0 0
0 0 0 0 0 0 0 0 0 0 0 0 0 0 0 0 -1 0 -1 0 0 0 0 0 0 -1 -1 0 -1 0 0 -3 -4 -5 -2 -11 -15 -8 -5 0 0 0 0
0 0 0 0 0 0 0 0 0 0 0 0 0 0 0 0 -6 -10 0 -12 0 0 0 0 0 0 0 -3 -1 0 -1 0 -2 -6 -10 -9 -9 -15 -9 -8 0 0 -1
0 0 0 0 0 0 0 0 0 0 0 0 0 0 0 0 0 0 0 0 0 0 0 0 0 0 0 0 0 0 0 0 0 0 0 0 -1 -11 -8 -20 -13 -5 -1
0 0 0 0 0 0 0 0 0 0 0 0 0 0 0 0 0 0 -2 -2 -1 0 0 0 0 0 0 0 0 0 0 0 0 0 0 0 0 0 -6 -6 -23 -28 -17
0 0 0 0 0 0 0 0 0 0 0 0 0 0 0 0 0 0 0 0 0 0 0 0 0 0 0 0 0 0 0 0 0 0 0 0 0 0 0 -1 -8 -14 -20
0 0 0 0 0 0 0 0 0 0 0 0 0 0 0 0 0 0 0 0 0 0 0 0 0 0 0 0 0 0 0 0 0 0 0 0 0 0 0 -2 -4 -9 -7
0 0 0 0 0 0 0 0 0 0 0 0 0 0 0 0 0 0 0 0 0 0 0 0 0 0 0 0 0 0 0 0 0 0 0 0 0 0 0 0 0 0 -9
0 0 0 0 0 0 0 0 0 0 0 0 0 0 0 0 0 0 0 0 0 0 0 0 0 0 0 0 0 0 0 0 0 0 0 0 0 0 0 0 0 0 0
Wind_Speed
41 41 40 37 34 37 nan 25 32 29 27 32 nan nan 38 36 30 37 42 42 44 46 46 43 nan 41 nan nan nan nan nan nan nan nan nan nan nan nan nan nan nan nan nan
38 43 44 40 34 32 29 nan nan 35 37 38 nan nan 35 36 39 41 42 44 46 46 43 nan 43 nan nan nan nan nan nan nan nan nan nan nan nan nan nan nan nan nan nan
40 41 39 36 36 34 nan nan nan 34 37 37 38 37 38 39 41 44 46 48 46 44 nan nan nan nan nan nan nan nan nan nan nan nan nan nan nan nan nan nan nan nan nan
41 41 41 41 nan 37 37 37 35 39 38 39 38 40 40 42 44 nan nan nan nan nan nan nan nan nan nan nan nan nan nan nan 42 41 nan nan nan nan nan nan nan nan nan
45 44 42 42 41 38 nan 36 37 38 39 38 39 42 nan nan nan nan nan nan nan nan nan nan nan nan 31 nan nan nan 38 41 42 41 38 nan nan nan nan nan nan nan nan
51 49 47 nan 43 42 42 41 41 40 40 nan nan nan nan nan nan nan nan nan nan nan nan nan nan nan nan nan nan 33 36 38 39 41 41 40 nan nan nan nan nan nan nan
50 nan nan nan nan nan nan nan nan nan nan nan nan nan nan nan nan nan nan nan nan nan nan nan nan nan nan nan nan nan nan 42 44 43 36 nan nan nan nan nan nan nan nan
nan nan nan nan nan nan nan nan nan nan nan nan nan nan nan nan nan nan nan nan nan nan nan nan nan nan nan nan nan nan nan nan nan nan nan nan nan nan nan nan nan nan nan
nan nan nan nan nan nan nan nan nan nan nan nan nan nan nan nan nan nan nan nan nan nan nan nan nan nan nan nan nan nan nan nan nan nan nan nan nan nan nan nan nan nan nan
nan nan nan nan nan nan nan nan nan nan nan nan nan nan nan nan nan nan nan nan nan nan nan nan nan nan nan nan nan nan nan nan nan nan nan nan nan nan nan nan nan nan nan
nan nan nan nan nan nan nan nan nan nan nan nan nan nan nan nan nan nan nan nan nan nan nan nan nan nan nan nan nan nan nan nan nan nan nan nan nan nan nan nan nan nan nan
nan nan nan nan nan nan nan nan nan nan nan nan nan nan nan nan nan nan nan nan nan nan nan nan nan nan nan nan nan nan nan nan nan nan nan nan nan nan nan nan nan nan nan
nan nan nan nan nan nan nan nan nan nan nan nan nan nan nan nan nan nan nan nan nan nan nan nan nan nan nan nan nan nan nan nan nan nan nan nan nan nan nan nan nan nan nan
nan nan nan nan nan nan nan nan nan nan nan nan nan nan nan nan nan nan nan nan nan nan nan nan nan nan nan nan nan nan nan nan nan nan nan nan nan nan nan nan nan nan nan
nan nan nan nan nan nan nan nan nan nan nan nan nan nan nan nan nan nan nan nan nan nan nan nan nan nan nan nan nan nan nan nan nan nan nan nan nan nan nan nan nan nan nan
nan nan nan nan nan nan nan nan nan nan nan nan nan nan nan nan nan nan nan nan nan nan nan nan nan nan nan nan nan nan nan nan nan nan nan nan nan nan nan nan nan nan nan
nan nan nan nan nan nan nan nan nan nan nan nan nan nan nan nan nan nan nan nan nan nan nan nan nan nan nan nan nan nan nan nan nan nan nan nan nan nan nan nan nan nan nan
nan nan nan nan nan nan nan nan nan nan nan nan nan nan nan nan nan nan nan nan nan nan nan nan nan nan nan nan nan nan nan nan nan nan nan nan nan nan nan nan nan nan nan
nan nan nan nan nan nan nan nan nan nan nan nan nan nan nan nan nan nan nan nan nan nan nan nan nan nan nan nan nan nan nan nan nan nan nan nan nan nan nan nan nan nan nan
nan nan nan nan nan nan nan nan nan nan nan nan nan nan nan nan nan nan nan nan nan nan nan nan nan nan nan nan nan nan nan nan nan nan nan nan nan nan nan nan nan nan nan
nan nan nan nan nan nan nan nan nan nan nan nan nan nan nan nan nan nan nan nan nan nan nan nan nan nan nan nan nan nan nan nan nan nan nan nan nan nan nan nan nan nan nan
nan nan nan nan nan nan nan nan nan nan nan nan nan nan nan nan nan nan nan nan nan nan nan nan nan nan nan nan nan nan nan nan nan nan nan nan nan nan nan nan nan nan nan
nan nan nan nan nan nan nan nan nan nan nan nan nan nan nan nan nan nan nan nan nan nan nan nan nan nan nan nan nan nan nan nan nan nan nan nan nan nan nan nan nan nan nan
nan nan nan nan nan nan nan nan nan nan nan nan nan nan nan nan nan nan nan nan nan nan nan nan nan nan nan nan nan nan nan nan nan nan nan nan nan nan nan nan nan nan nan
nan nan nan nan nan nan nan nan nan nan nan nan nan nan nan nan nan nan nan nan nan nan nan nan nan nan nan nan nan nan nan nan nan nan nan nan nan nan nan nan nan nan nan
nan nan nan nan nan nan nan nan nan nan nan nan nan nan nan nan nan nan nan nan nan nan nan nan nan nan nan nan nan nan nan nan nan nan nan nan nan nan nan nan nan nan nan
Wind_Direction
336 330 333 332 337 337 nan 331 315 306 289 282 nan nan 308 312 312 306 308 312 314 312 311 307 nan 306 nan nan nan nan nan nan nan nan nan nan nan nan nan nan nan nan nan
331 327 332 335 321 316 317 nan nan 311 309 305 nan nan 311 313 307 309 311 310 312 310 308 nan 309 nan nan nan nan nan nan nan nan nan nan nan nan nan nan nan nan nan nan
329 327 326 316 316 323 nan nan nan 302 298 299 306 309 306 303 306 308 311 313 308 307 nan nan nan nan nan nan nan nan nan nan nan nan nan nan nan nan nan nan nan nan nan
325 328 324 325 nan 322 319 313 307 302 306 303 306 307 305 307 307 nan nan nan nan nan nan nan nan nan nan nan nan nan nan nan 290 287 nan nan nan nan nan nan nan nan nan
326 324 322 318 318 319 nan 305 306 307 304 306 307 308 nan nan nan nan nan nan nan nan nan nan nan nan 311 nan nan nan 299 295 291 285 281 nan nan nan nan nan nan nan nan
324 321 319 nan 310 304 304 306 306 306 309 nan nan nan nan nan nan nan nan nan nan nan nan nan nan nan nan nan nan 312 312 300 292 288 281 277 nan nan nan nan nan nan nan
315 nan nan nan nan nan nan nan nan nan nan nan nan nan nan nan nan nan nan nan nan nan nan nan nan nan nan nan nan nan nan 303 300 289 281 nan nan nan nan nan nan nan nan
nan nan nan nan nan nan nan nan nan nan nan nan nan nan nan nan nan nan nan nan nan nan nan nan nan nan nan nan nan nan nan nan nan nan nan nan nan nan nan nan nan nan nan
nan nan nan nan nan nan nan nan nan nan nan nan nan nan nan nan nan nan nan nan nan nan nan nan nan nan nan nan nan nan nan nan nan nan nan nan nan nan nan nan nan nan nan
nan nan nan nan nan nan nan nan nan nan nan nan nan nan nan nan nan nan nan nan nan nan nan nan nan nan nan nan nan nan nan nan nan nan nan nan nan nan nan nan nan nan nan
nan nan nan nan nan nan nan nan nan nan nan nan nan nan nan nan nan nan nan nan nan nan nan nan nan nan nan nan nan nan nan nan nan nan nan nan nan nan nan nan nan nan nan
nan nan nan nan nan nan nan nan nan nan nan nan nan nan nan nan nan nan nan nan nan nan nan nan nan nan nan nan nan nan nan nan nan nan nan nan nan nan nan nan nan nan nan
nan nan nan nan nan nan nan nan nan nan nan nan nan nan nan nan nan nan nan nan nan nan nan nan nan nan nan nan nan nan nan nan nan nan nan nan nan nan nan nan nan nan nan
nan nan nan nan nan nan nan nan nan nan nan nan nan nan nan nan nan nan nan nan nan nan nan nan nan nan nan nan nan nan nan nan nan nan nan nan nan nan nan nan nan nan nan
nan nan nan nan nan nan nan nan nan nan nan nan nan nan nan nan nan nan nan nan nan nan nan nan nan nan nan nan nan nan nan nan nan nan nan nan nan nan nan nan nan nan nan
nan nan nan nan nan nan nan nan nan nan nan nan nan nan nan nan nan nan nan nan nan nan nan nan nan nan nan nan nan nan nan nan nan nan nan nan nan nan nan nan nan nan nan
nan nan nan nan nan nan nan nan nan nan nan nan nan nan nan nan nan nan nan nan nan nan nan nan nan nan nan nan nan nan nan nan nan nan nan nan nan nan nan nan nan nan nan
nan nan nan nan nan nan nan nan nan nan nan nan nan nan nan nan nan nan nan nan nan nan nan nan nan nan nan nan nan nan nan nan nan nan nan nan nan nan nan nan nan nan nan
nan nan nan nan nan nan nan nan nan nan nan nan nan nan nan nan nan nan nan nan nan nan nan nan nan nan nan nan nan nan nan nan nan nan nan nan nan nan nan nan nan nan nan
nan nan nan nan nan nan nan nan nan nan nan nan nan nan nan nan nan nan nan nan nan nan nan nan nan nan nan nan nan nan nan nan nan nan nan nan nan nan nan nan nan nan nan
nan nan nan nan nan nan nan nan nan nan nan nan nan nan nan nan nan nan nan nan nan nan nan nan nan nan nan nan nan nan nan nan nan nan nan nan nan nan nan nan nan nan nan
nan nan nan nan nan nan nan nan nan nan nan nan nan nan nan nan nan nan nan nan nan nan nan nan nan nan nan nan nan nan nan nan nan nan nan nan nan nan nan nan nan nan nan
nan nan nan nan nan nan nan nan nan nan nan nan nan nan nan nan nan nan nan nan nan nan nan nan nan nan nan nan nan nan nan nan nan nan nan nan nan nan nan nan nan nan nan
nan nan nan nan nan nan nan nan nan nan nan nan nan nan nan nan nan nan nan nan nan nan nan nan nan nan nan nan nan nan nan nan nan nan nan nan nan nan nan nan nan nan nan
nan nan nan nan nan nan nan nan nan nan nan nan nan nan nan nan nan nan nan nan nan nan nan nan nan nan nan nan nan nan nan nan nan nan nan nan nan nan nan nan nan nan nan
nan nan nan nan nan nan nan nan nan nan nan nan nan nan nan nan nan nan nan nan nan nan nan nan nan nan nan nan nan nan nan nan nan nan nan nan nan nan nan nan nan nan nan